Location: Waldport
(44.4270°N, 124.0680°W)
Time: 19:20:33
(UTC-07:00)

Amateur Radio Satellites - All Passes

Search period start: 26 May 2017 18:50
Search period end: 27 May 2017 18:50
Location: Waldport, 44.4270°N, 124.0680°W

Satellite Date Start Highest point End Downlink Frequencies (MHz)
Time Altitude Azimuth
XW-2D 26 May 19:07:58 19:11:29 35° 263° (W) 19:15:04 145.860 - 145.880
CUBEBUG 2 26 May 19:13:48 19:16:37 18° 64° (ENE) 19:19:29 437.445
STARS 26 May 19:14:48 19:19:00 46° 289° (WNW) 19:23:12 437.465
XW-2B 26 May 19:16:06 19:19:29 30° 264° (W) 19:22:54 145.730 - 145.750
SEEDS 26 May 19:22:53 19:26:32 29° 68° (ENE) 19:30:13 437.485
UWE-3 26 May 19:24:27 19:26:47 15° 62° (ENE) 19:29:08 435.000/436.395/437.385
NUDT-PHONESAT 26 May 19:27:25 19:30:38 27° 264° (W) 19:33:54 437.300
XW-2F 26 May 19:29:03 19:32:05 22° 266° (W) 19:35:09 145.980 - 146.000
XW-2C 26 May 19:30:20 19:33:16 21° 266° (W) 19:36:13 145.795 - 145.815
KAITUO 1B 26 May 19:36:27 19:39:25 22° 266° (W) 19:42:27 145.475/437.950
CUTE-I 26 May 19:42:29 19:46:59 28° 265° (W) 19:51:33 437.470
Tancredo 1 26 May 19:54:24 19:55:48 12° 133° (SE) 19:57:12 437.200
XW-2A 26 May 19:54:52 19:58:13 89° 261° (W) 20:01:38 145.665 - 145.685
Oscar 11 26 May 19:56:34 19:58:51 14° 61° (ENE) 20:01:09 .
STRAND 1 26 May 20:02:55 20:07:26 30° 95° (E) 20:11:55 437.568
CUTE 1.7 + AOD 2 26 May 20:08:51 20:13:05 60° 260° (W) 20:17:21 437.475
PCSat 26 May 20:18:56 20:24:21 79° 302° (WNW) 20:29:50 145.827
HO-68 26 May 20:20:03 20:27:05 57° 259° (WSW) 20:34:11 435.675
AAUSAT CUBESAT 2 26 May 20:21:33 20:25:40 58° 73° (ENE) 20:29:48 437.432
AO-73 26 May 20:21:43 20:25:22 29° 68° (ENE) 20:29:08 145.935
ISS 26 May 20:26:25 20:28:41 17° 134° (SE) 20:30:59 437.550
ZACube-1 26 May 20:35:23 20:39:24 44° 71° (ENE) 20:43:32 437.345
DELFI C3 26 May 20:42:17 20:43:16 11° 61° (ENE) 20:44:16 145.870
CUBEBUG 2 26 May 20:48:55 20:52:54 45° 262° (W) 20:57:00 437.445
SEEDS 26 May 20:58:33 21:02:11 27° 265° (W) 21:05:50 437.485
UWE-3 26 May 20:58:36 21:02:44 59° 260° (W) 21:06:59 435.000/436.395/437.385
M-CUBED/EXP-1 PRIME 26 May 21:23:05 21:25:34 19° 100° (E) 21:27:59 437.505
Tancredo 1 26 May 21:28:04 21:31:08 86° 327° (NNW) 21:34:14 437.200
Oscar 11 26 May 21:30:09 21:34:28 65° 259° (W) 21:38:48 .
FO-29 26 May 21:34:04 21:35:21 11° 86° (E) 21:36:38 435.910
STRAND 1 26 May 21:41:57 21:46:38 37° 293° (WNW) 21:51:20 437.568
SO-50 26 May 21:47:48 21:49:41 12° 108° (ESE) 21:51:35 436.795
AO-73 26 May 21:58:00 22:01:35 27° 266° (W) 22:05:16 145.935
AAUSAT CUBESAT 2 26 May 21:59:31 22:01:29 13° 271° (W) 22:03:28 437.432
ISS 26 May 22:01:34 22:04:52 70° 332° (NNW) 22:08:10 437.550
PCSat 26 May 22:05:04 22:08:39 18° 323° (NW) 22:12:15 145.827
ZACube-1 26 May 22:13:04 22:15:56 18° 269° (W) 22:18:51 437.345
EO-88 26 May 22:13:12 22:16:51 78° 78° (ENE) 22:20:33 145.990 - 145.960
DELFI C3 26 May 22:13:28 22:17:28 75° 259° (WSW) 22:21:28 145.870
TIGRISAT 26 May 22:20:44 22:23:49 17° 92° (E) 22:26:55 435.000
UNISAT 6 26 May 22:51:38 22:55:56 38° 97° (E) 23:00:17 437.425
PRISM 26 May 22:54:19 22:58:14 45° 100° (E) 23:02:08 437.425
LO-87 26 May 22:55:59 22:59:09 32° 71° (ENE) 23:02:20 145.935 - 145.965
M-CUBED/EXP-1 PRIME 26 May 22:57:20 23:00:02 23° 297° (WNW) 23:02:41 437.505
Tancredo 1 26 May 23:04:37 23:07:13 24° 348° (NNW) 23:09:49 437.200
FO-29 26 May 23:14:52 23:21:16 65° 102° (ESE) 23:28:27 435.910
ESTCUBE 1 26 May 23:23:47 23:28:05 44° 71° (ENE) 23:32:26 437.505/2401.250
SO-50 26 May 23:24:55 23:29:31 82° 308° (NW) 23:34:05 436.795
ISS 26 May 23:38:58 23:41:46 25° 351° (N) 23:44:34 437.550
YUBILEINY 26 May 23:50:34 23:53:45 12° 71° (ENE) 23:56:56 435.215
TIGRISAT 26 May 23:56:18 00:00:47 53° 288° (WNW) 00:05:18 435.000
NANOSAT C BR1 27 May 00:03:12 00:05:15 13° 90° (E) 00:07:16 145.865
POLYITAN 1 27 May 00:07:29 00:10:13 16° 92° (E) 00:12:57 437.675
50 SAT 27 May 00:08:36 00:10:35 15° 65° (ENE) 00:12:34 437.505
SPROUT 27 May 00:10:07 00:13:57 35° 69° (ENE) 00:17:49 437.525
DUCHIFAT 1 27 May 00:13:19 00:15:49 15° 91° (E) 00:18:20 145.980
AIST 2D 27 May 00:15:13 00:18:34 37° 98° (E) 00:21:54 435.315
QB50P2 27 May 00:15:43 00:19:02 22° 94° (E) 00:22:21 145.880/145.840
VELOX 1 27 May 00:18:12 00:22:23 44° 71° (ENE) 00:26:36 145.980
UNISAT 6 27 May 00:28:43 00:32:27 25° 294° (WNW) 00:36:13 437.425
LO-87 27 May 00:30:21 00:32:41 17° 267° (W) 00:35:02 145.935 - 145.965
PRISM 27 May 00:30:33 00:33:10 17° 297° (WNW) 00:35:47 437.425
Tancredo 1 27 May 00:41:08 00:43:38 22° 8° (N) 00:46:09 437.200
UKube-1 27 May 00:45:01 00:48:22 22° 65° (ENE) 00:51:43 .
EO-79 27 May 00:52:08 00:56:17 48° 99° (E) 01:00:25 145.935-145.965
DX 1 27 May 00:52:43 00:56:44 37° 69° (ENE) 01:00:45 434.975-435.025
FO-29 27 May 01:00:52 01:05:58 26° 298° (WNW) 01:11:30 435.910
ESTCUBE 1 27 May 01:01:46 01:05:06 20° 268° (W) 01:08:26 437.505/2401.250
RS-15 27 May 01:03:37 01:12:08 23° 98° (E) 01:20:46 29.354- 29.394
SO-50 27 May 01:07:49 01:10:40 16° 326° (NW) 01:13:31 436.795
ISS 27 May 01:16:07 01:18:58 26° 11° (N) 01:21:47 437.550
Oscar 19 27 May 01:37:02 01:40:07 16° 90° (E) 01:43:10 437.125/150
NANOSAT C BR1 27 May 01:37:08 01:41:19 60° 287° (WNW) 01:45:30 145.865
50 SAT 27 May 01:39:56 01:43:09 36° 262° (W) 01:46:23 437.505
YUBILEINY 27 May 01:40:06 01:48:40 66° 92° (E) 01:57:20 435.215
POLYITAN 1 27 May 01:42:08 01:46:16 48° 288° (WNW) 01:50:23 437.675
SPROUT 27 May 01:46:38 01:49:56 22° 266° (W) 01:53:16 437.525
DUCHIFAT 1 27 May 01:47:40 01:51:47 51° 288° (WNW) 01:55:54 145.980
AIST 2D 27 May 01:49:19 01:51:29 15° 294° (WNW) 01:53:38 435.315
QB50P2 27 May 01:51:00 01:54:55 36° 290° (WNW) 01:58:50 145.880/145.840
VELOX 1 27 May 01:55:54 01:59:03 19° 267° (W) 02:02:13 145.980
BUGSAT 1 27 May 02:03:57 02:08:06 77° 103° (ESE) 02:12:17 437.445
BEESAT 27 May 02:04:07 02:07:04 17° 60° (ENE) 02:10:01 436.000
Tancredo 1 27 May 02:16:46 02:19:49 62° 28° (NNE) 02:22:52 437.200
UKube-1 27 May 02:20:11 02:24:10 37° 262° (W) 02:28:12 .
EO-79 27 May 02:28:51 02:31:41 17° 297° (WNW) 02:34:30 145.935-145.965
DX 1 27 May 02:29:39 02:33:01 22° 266° (W) 02:36:24 434.975-435.025
ISS 27 May 02:52:30 02:55:48 82° 30° (NNE) 02:59:04 437.550
Gurwin Techsat 1B 27 May 02:56:10 03:01:22 51° 100° (E) 03:06:31 435.225
ITUPSAT 1 27 May 03:06:24 03:11:05 59° 72° (ENE) 03:15:49 437.325
AO-7 27 May 03:08:43 03:12:39 14° 86° (E) 03:16:34 .
RS-15 27 May 03:10:34 03:22:43 82° 121° (ESE) 03:35:08 29.354- 29.394
Oscar 19 27 May 03:14:47 03:19:56 69° 287° (WNW) 03:25:02 437.125/150
MOZHAYETS 4 27 May 03:17:41 03:22:01 42° 70° (ENE) 03:26:23
PCSat 27 May 03:22:27 03:26:45 23° 42° (NE) 03:31:03 145.827
YUBILEINY 27 May 03:38:44 03:46:09 30° 294° (WNW) 03:53:40 435.215
BEESAT 27 May 03:39:36 03:44:19 65° 258° (WSW) 03:49:05 436.000
BUGSAT 1 27 May 03:41:32 03:42:53 11° 300° (WNW) 03:44:14 437.445
Tancredo 1 27 May 03:53:09 03:55:17 18° 225° (SW) 03:57:26 437.200
CUBESAT XI-V 27 May 04:05:37 04:09:29 26° 66° (ENE) 04:13:23 437.345
O/OREOS (USA 219) 27 May 04:06:18 04:10:32 37° 106° (ESE) 04:14:45 437.305
KKS-1 27 May 04:07:59 04:11:28 23° 65° (ENE) 04:14:57 437.445
ITAMSAT 1 27 May 04:17:29 04:22:25 41° 98° (E) 04:27:19 435.822/435.867
ISS 27 May 04:30:02 04:31:54 14° 227° (SW) 04:33:45 437.550
Gurwin Techsat 1B 27 May 04:36:47 04:40:58 24° 298° (WNW) 04:45:08 435.225
STARS 27 May 04:37:36 04:40:49 21° 64° (ENE) 04:44:03 437.465
ITUPSAT 1 27 May 04:46:19 04:49:17 16° 269° (W) 04:52:17 437.325
MOZHAYETS 4 27 May 04:55:49 04:59:21 21° 268° (W) 05:02:54
Oscar 19 27 May 04:57:21 04:58:17 10° 306° (NW) 04:59:13 437.125/150
AO-7 27 May 04:58:29 05:06:52 71° 106° (ESE) 05:15:12 .
AO-85 27 May 05:03:03 05:07:06 52° 121° (ESE) 05:10:59 145.980
PCSat 27 May 05:05:16 05:10:41 71° 242° (WSW) 05:16:04 145.827
RS-15 27 May 05:25:15 05:36:39 42° 328° (NNW) 05:48:11 29.354- 29.394
BEESAT 2 27 May 05:31:57 05:33:43 13° 109° (ESE) 05:35:29 435.950
CUBESAT XI-V 27 May 05:42:20 05:46:41 37° 263° (W) 05:51:05 437.345
KKS-1 27 May 05:43:42 05:47:49 38° 262° (W) 05:51:57 437.445
O/OREOS (USA 219) 27 May 05:46:09 05:50:01 26° 304° (NW) 05:53:54 437.305
BEESAT 3 27 May 05:48:17 05:52:06 50° 120° (ESE) 05:56:01 437.485
ITAMSAT 1 27 May 05:57:18 06:01:42 28° 296° (WNW) 06:06:06 435.822/435.867
STARS 27 May 06:12:45 06:16:53 42° 261° (W) 06:21:03 437.465
DOVE 4 27 May 06:13:10 06:16:17 20° 93° (E) 06:19:25 437.250
SO-50 27 May 06:14:48 06:18:24 22° 40° (NE) 06:21:58 436.795
CUTE-I 27 May 06:18:40 06:21:17 14° 88° (E) 06:23:53 437.470
XW-2D 27 May 06:39:06 06:42:01 20° 93° (E) 06:44:55 145.860 - 145.880
AO-85 27 May 06:44:42 06:47:44 20° 319° (NW) 06:50:42 145.980
XW-2B 27 May 06:46:53 06:50:02 24° 94° (E) 06:53:11 145.730 - 145.750
AO-7 27 May 06:52:01 06:59:00 31° 306° (NW) 07:05:59 .
NUDT-PHONESAT 27 May 06:55:58 06:59:04 23° 95° (E) 07:02:07 437.300
XW-2F 27 May 06:58:46 07:02:14 31° 97° (E) 07:05:40 145.980 - 146.000
XW-2C 27 May 07:00:17 07:03:51 34° 97° (E) 07:07:21 145.795 - 145.815
KAITUO 1B 27 May 07:05:13 07:08:38 30° 96° (E) 07:12:01 145.475/437.950
BEESAT 2 27 May 07:06:57 07:10:55 66° 307° (NW) 07:14:58 435.950
STRAND 1 27 May 07:20:14 07:25:08 50° 70° (ENE) 07:30:04 437.568
BEESAT 3 27 May 07:26:54 07:29:58 21° 319° (NW) 07:33:03 437.485
LilacSat-2 27 May 07:39:00 07:42:54 76° 283° (WNW) 07:46:45 437.200
RS-15 27 May 07:43:24 07:53:40 29° 2° (N) 08:03:45 29.354- 29.394
HO-68 27 May 07:46:19 07:52:15 27° 93° (E) 07:58:08 435.675
DOVE 4 27 May 07:50:17 07:54:07 36° 289° (WNW) 07:58:01 437.250
CUTE 1.7 + AOD 2 27 May 07:52:39 07:55:53 21° 93° (E) 07:59:06 437.475
SO-50 27 May 07:54:45 07:59:12 58° 239° (WSW) 08:03:38 436.795
CUTE-I 27 May 07:56:36 08:01:58 82° 286° (WNW) 08:07:19 437.470
M-CUBED/EXP-1 PRIME 27 May 08:09:21 08:13:18 42° 67° (ENE) 08:17:00 437.505
XW-2D 27 May 08:12:49 08:16:15 31° 290° (WNW) 08:19:40 145.860 - 145.880
XW-2B 27 May 08:20:55 08:24:12 27° 291° (WNW) 08:27:26 145.730 - 145.750
NUDT-PHONESAT 27 May 08:29:45 08:32:55 26° 291° (WNW) 08:36:05 437.300
XW-2F 27 May 08:33:17 08:36:10 21° 293° (WNW) 08:39:03 145.980 - 146.000
XW-2C 27 May 08:35:01 08:37:48 19° 294° (WNW) 08:40:34 145.795 - 145.815
NO-84 27 May 08:36:58 08:40:53 32° 131° (SE) 08:44:43 435.350 FM
CUBEBUG 2 27 May 08:37:25 08:41:34 33° 96° (E) 08:45:48 437.445
KAITUO 1B 27 May 08:39:35 08:42:28 21° 293° (WNW) 08:45:20 145.475/437.950
SEEDS 27 May 08:39:55 08:43:57 42° 98° (E) 08:47:55 437.485
UWE-3 27 May 08:46:24 08:50:14 25° 94° (E) 08:54:05 435.000/436.395/437.385
XW-2A 27 May 08:47:33 08:51:00 76° 102° (ESE) 08:54:27 145.665 - 145.685
BEESAT 2 27 May 08:47:54 08:49:28 12° 327° (NNW) 08:51:03 435.950
STRAND 1 27 May 09:00:45 09:04:35 21° 267° (W) 09:08:27 437.568
Oscar 11 27 May 09:16:18 09:19:35 21° 93° (E) 09:22:51 .
TIGRISAT 27 May 09:21:26 09:24:19 18° 63° (ENE) 09:27:15 435.000
CUTE 1.7 + AOD 2 27 May 09:27:54 09:31:50 37° 290° (WNW) 09:35:45 437.475
FO-29 27 May 09:30:48 09:35:11 29° 64° (ENE) 09:39:45 435.910
HO-68 27 May 09:33:20 09:40:26 63° 292° (WNW) 09:47:30 435.675
AAUSAT CUBESAT 2 27 May 09:37:09 09:41:19 88° 103° (ESE) 09:45:26 437.432
CUTE-I 27 May 09:38:47 09:41:11 13° 304° (NW) 09:43:35 437.470
AO-73 27 May 09:43:05 09:47:32 50° 99° (E) 09:51:58 145.935
PRISM 27 May 09:44:49 09:48:41 41° 71° (ENE) 09:52:34 437.425
M-CUBED/EXP-1 PRIME 27 May 09:44:59 09:47:51 18° 260° (W) 09:50:37 437.505
DELFI C3 27 May 09:50:41 09:52:14 12° 90° (E) 09:53:47 145.870
UNISAT 6 27 May 09:52:06 09:56:03 38° 70° (ENE) 10:00:06 437.425
ZACube-1 27 May 09:57:30 10:02:04 79° 101° (ESE) 10:06:40 437.345
RS-15 27 May 09:58:40 10:10:23 45° 35° (NE) 10:21:36 29.354- 29.394
NO-84 27 May 10:14:08 10:18:24 50° 329° (NNW) 10:22:29 435.350 FM
CUBEBUG 2 27 May 10:14:10 10:18:04 28° 292° (WNW) 10:22:03 437.445
SEEDS 27 May 10:16:21 10:19:19 19° 295° (WNW) 10:22:16 437.485
UWE-3 27 May 10:22:33 10:26:44 36° 290° (WNW) 10:30:58 435.000/436.395/437.385
AIST 2D 27 May 10:51:44 10:54:13 18° 67° (ENE) 10:56:43 435.315
Oscar 11 27 May 10:51:48 10:55:52 39° 290° (WNW) 10:59:54 .
TIGRISAT 27 May 10:56:31 11:00:37 48° 261° (W) 11:04:52 435.000
NANOSAT C BR1 27 May 10:57:22 10:59:17 13° 61° (ENE) 11:01:14 145.865
POLYITAN 1 27 May 11:02:00 11:04:35 16° 63° (ENE) 11:07:09 437.675
DUCHIFAT 1 27 May 11:07:07 11:09:27 15° 62° (ENE) 11:11:47 145.980
QB50P2 27 May 11:10:04 11:13:12 21° 65° (ENE) 11:16:20 145.880/145.840
EO-88 27 May 11:13:50 11:17:33 82° 103° (ESE) 11:21:14 145.990 - 145.960
FO-29 27 May 11:15:26 11:20:12 37° 264° (W) 11:25:08 435.910
AO-73 27 May 11:20:12 11:23:24 19° 296° (WNW) 11:26:35 145.935
PRISM 27 May 11:21:18 11:24:09 18° 267° (W) 11:27:00 437.425
HO-68 27 May 11:23:14 11:26:48 15° 312° (NW) 11:30:21 435.675
DELFI C3 27 May 11:23:30 11:27:22 55° 286° (WNW) 11:31:11 145.870
UNISAT 6 27 May 11:29:40 11:32:54 21° 267° (W) 11:36:13 437.425
ZACube-1 27 May 11:35:38 11:37:44 13° 299° (WNW) 11:39:50 437.345
EO-79 27 May 11:45:52 11:49:50 43° 71° (ENE) 11:53:50 145.935-145.965
YUBILEINY 27 May 11:48:18 11:56:18 36° 68° (ENE) 12:04:13 435.215
AO-85 27 May 11:53:28 11:55:05 12° 34° (NE) 11:56:44 145.980
NO-84 27 May 11:53:30 11:56:44 21° 348° (NNW) 11:59:51 435.350 FM
LO-87 27 May 11:54:19 11:57:32 31° 97° (E) 12:00:44 145.935 - 145.965
RS-15 27 May 12:11:42 12:23:49 72° 242° (WSW) 12:35:19 29.354- 29.394
AIST 2D 27 May 12:24:06 12:27:14 29° 264° (W) 12:30:23 435.315
BEESAT 3 27 May 12:28:47 12:28:50 10° 30° (NNE) 12:28:54 437.485
NANOSAT C BR1 27 May 12:30:19 12:34:28 66° 259° (W) 12:38:39 145.865
POLYITAN 1 27 May 12:35:52 12:39:56 52° 260° (W) 12:44:04 437.675
O/OREOS (USA 219) 27 May 12:36:35 12:38:49 13° 48° (NE) 12:41:02 437.305
DUCHIFAT 1 27 May 12:40:35 12:44:39 57° 259° (W) 12:48:48 145.980
Gurwin Techsat 1B 27 May 12:42:06 12:44:58 15° 57° (ENE) 12:47:50 435.225
QB50P2 27 May 12:44:49 12:48:44 38° 262° (W) 12:52:42 145.880/145.840
ESTCUBE 1 27 May 12:50:53 12:55:25 78° 102° (ESE) 12:59:55 437.505/2401.250
Oscar 19 27 May 12:54:54 12:59:19 29° 65° (ENE) 13:03:42 437.125/150
BUGSAT 1 27 May 12:54:57 12:58:54 63° 73° (ENE) 13:02:52 437.445
50 SAT 27 May 13:03:02 13:03:55 11° 91° (E) 13:04:48 437.505
EO-79 27 May 13:23:01 13:25:49 17° 268° (W) 13:28:38 145.935-145.965
LO-87 27 May 13:28:18 13:30:45 18° 293° (WNW) 13:33:12 145.935 - 145.965
SPROUT 27 May 13:29:18 13:33:30 53° 100° (E) 13:37:41 437.525
AO-85 27 May 13:32:09 13:36:10 72° 53° (NE) 13:40:23 145.980
NO-84 27 May 13:32:26 13:35:28 20° 9° (N) 13:38:20 435.350 FM
VELOX 1 27 May 13:42:27 13:46:51 71° 103° (ESE) 13:51:12 145.980
YUBILEINY 27 May 13:44:55 13:53:28 56° 270° (W) 14:01:59 435.215
BEESAT 2 27 May 13:46:07 13:48:57 18° 39° (NE) 13:51:46 435.950
ITAMSAT 1 27 May 14:01:57 14:03:34 11° 55° (NE) 14:05:11 435.822/435.867
BEESAT 3 27 May 14:03:25 14:07:23 51° 51° (NE) 14:11:16 437.485
UKube-1 27 May 14:05:18 14:09:06 30° 96° (E) 14:12:52 .
AO-7 27 May 14:08:47 14:15:25 28° 52° (NE) 14:22:04 .
O/OREOS (USA 219) 27 May 14:14:21 14:18:53 86° 251° (WSW) 14:23:22 437.305
DX 1 27 May 14:14:46 14:19:03 55° 101° (E) 14:23:16 434.975-435.025
Gurwin Techsat 1B 27 May 14:18:51 14:24:10 87° 257° (WSW) 14:29:31 435.225
RS-15 27 May 14:26:59 14:33:52 18° 265° (W) 14:40:35 29.354- 29.394
ESTCUBE 1 27 May 14:29:35 14:31:36 13° 300° (WNW) 14:33:36 437.505/2401.250
Oscar 19 27 May 14:33:35 14:38:27 40° 262° (W) 14:43:21 437.125/150
BUGSAT 1 27 May 14:33:35 14:34:40 11° 271° (W) 14:35:47 437.445
50 SAT 27 May 14:33:47 14:37:03 45° 288° (WNW) 14:40:18 437.505
SPROUT 27 May 15:06:20 15:09:00 16° 297° (WNW) 15:11:39 437.525
ITUPSAT 1 27 May 15:06:52 15:09:10 13° 89° (E) 15:11:27 437.325
NO-84 27 May 15:10:01 15:13:50 48° 31° (NNE) 15:17:18 435.350 FM
AO-85 27 May 15:14:26 15:16:04 12° 250° (WSW) 15:17:43 145.980
VELOX 1 27 May 15:20:36 15:22:44 13° 300° (WNW) 15:24:51 145.980
BEESAT 2 27 May 15:23:05 15:27:08 66° 238° (WSW) 15:31:08 435.950
ITAMSAT 1 27 May 15:36:59 15:42:07 74° 74° (ENE) 15:47:19 435.822/435.867
BEESAT 27 May 15:38:15 15:42:22 27° 95° (E) 15:46:26 436.000
UKube-1 27 May 15:41:24 15:45:02 27° 293° (WNW) 15:48:39 .
BEESAT 3 27 May 15:41:59 15:44:34 17° 249° (WSW) 15:47:08 437.485
DX 1 27 May 15:52:07 15:54:48 16° 298° (WNW) 15:57:29 434.975-435.025
AO-7 27 May 15:59:06 16:07:24 79° 253° (WSW) 16:15:45 .
Gurwin Techsat 1B 27 May 16:03:08 16:04:53 11° 273° (W) 16:06:37 435.225
ITUPSAT 1 27 May 16:42:41 16:47:30 73° 287° (WNW) 16:52:18 437.325
MOZHAYETS 4 27 May 16:47:35 16:52:16 79° 103° (ESE) 16:56:54
NO-84 27 May 16:48:06 16:51:09 24° 231° (SW) 16:53:58 435.350 FM
BEESAT 27 May 17:15:49 17:20:10 35° 292° (WNW) 17:24:31 436.000
ITAMSAT 1 27 May 17:19:21 17:22:09 15° 271° (W) 17:24:58 435.822/435.867
DOVE 4 27 May 17:20:04 17:23:49 26° 68° (ENE) 17:27:27 437.250
XW-2D 27 May 17:22:53 17:24:51 14° 63° (ENE) 17:26:50 145.860 - 145.880
XW-2B 27 May 17:30:24 17:32:46 16° 65° (ENE) 17:35:10 145.730 - 145.750
KKS-1 27 May 17:32:36 17:36:39 34° 97° (E) 17:40:41 437.445
CUBESAT XI-V 27 May 17:36:44 17:41:15 47° 99° (E) 17:45:41 437.345
NUDT-PHONESAT 27 May 17:37:43 17:39:50 15° 64° (ENE) 17:41:58 437.300
CUTE-I 27 May 17:41:21 17:45:46 28° 64° (ENE) 17:50:12 437.470
XW-2F 27 May 17:41:35 17:44:25 20° 67° (ENE) 17:47:16 145.980 - 146.000
XW-2C 27 May 17:43:24 17:46:23 22° 67° (ENE) 17:49:24 145.795 - 145.815
KAITUO 1B 27 May 17:47:14 17:49:58 19° 66° (ENE) 17:52:43 145.475/437.950
AO-7 27 May 17:56:42 18:01:26 16° 272° (W) 18:06:13 .
STARS 27 May 18:00:16 18:04:06 29° 96° (E) 18:07:56 437.465
PCSat 27 May 18:09:41 18:11:02 11° 101° (E) 18:12:23 145.827
HO-68 27 May 18:17:24 18:23:02 26° 56° (NE) 18:28:41 435.675
LilacSat-2 27 May 18:21:57 18:25:45 64° 74° (ENE) 18:29:36 437.200
ITUPSAT 1 27 May 18:23:54 18:24:28 10° 305° (NW) 18:25:01 437.325
MOZHAYETS 4 27 May 18:26:35 18:28:46 13° 301° (WNW) 18:30:57
